Flag for Norway Weather past 2 weeks in Lillestrøm, Norway

Now
59 °F

Cool.


Feels Like: 59 °F
Forecast: 52 / 57 °F
Wind: 2 mph from Northeast

Location: Oslo-Blindern

Current Time: Sep 1, 2015 at 12:08:37 AM

Latest Report: Aug 31, 2015 at 10:00 PM


Visibility: N/A

Pressure: 29.96 "Hg

Humidity: 73%

Dew point: 50 °F

Location of LillestrømLocation

Historic Weather in Lillestrøm — Graph

°F

Lillestrøm temperature yesterday

Maximum temperature yesterday: 69 °F (at 4:00 PM)
Minimum temperature yesterday: 53 °F (at 2:00 AM)
Average temperature yesterday: 60 °F

Past Weeks' High & Low Weather Summary

 TemperatureHumidityPressure
High77 °F (Aug 23, 5:00 PM)98% (Aug 28, 1:00 AM)30.37 "Hg (Aug 28, 1:00 AM)
Low47 °F (Aug 29, 6:00 AM)33% (Aug 22, 4:00 PM)29.47 "Hg (Aug 27, 5:00 PM)
Average62 °F70%30.05 "Hg
* Reported Aug 16 10:00 PM — Aug 31 10:00 PM, Lillestrøm, Weather by CustomWeather, © 2015

Note: Actual official high and low records may vary slightly from our data, if they occured in-between our weather recording intervals... More about our weather records

Advertising

Lillestrøm weather history for previous 24 hours

 ConditionsComfort  
Time TempWeatherWind HumidityBarometerVisibility
10:00 PM
Mon, Aug 31
59 °FCool.2 mph73%29.96 "HgN/A
9:00 PM60 °FCool.2 mph74%29.96 "HgN/A
8:00 PM62 °FOvercast.2 mph71%29.97 "Hg43 mi
7:00 PM64 °FMild.1 mph58%29.96 "HgN/A
6:00 PM65 °FMild.2 mph57%29.97 "HgN/A
5:00 PM67 °FOvercast.2 mph58%29.98 "Hg43 mi
4:00 PM69 °FMild.2 mph53%29.99 "HgN/A
3:00 PM69 °FMild.3 mph55%30.00 "HgN/A
2:00 PM69 °FPartly sunny.2 mph60%30.01 "Hg47 mi
1:00 PM66 °FMild.2 mph59%30.02 "HgN/A
12:00 PM63 °FMild.1 mph70%30.03 "HgN/A
11:00 AM61 °FCool.2 mph76%30.04 "HgN/A
10:00 AM60 °FCool.2 mph79%30.04 "HgN/A
9:00 AM57 °FCool.2 mph88%30.05 "HgN/A
8:00 AM55 °FLow clouds.2 mph92%30.05 "Hg17 mi
7:00 AM53 °FCool.2 mph95%30.05 "HgN/A
6:00 AM53 °FCool.3 mph97%30.05 "HgN/A
5:00 AM54 °FFog.2 mph97%30.05 "Hg1 mi
4:00 AM55 °FCool.2 mph95%30.04 "HgN/A
3:00 AM56 °FCool.1 mph95%30.05 "HgN/A
2:00 AM53 °FPassing clouds.No wind96%30.06 "Hg25 mi
1:00 AM54 °FCool.No wind94%30.06 "HgN/A
12:00 AM55 °FCool.1 mph92%30.06 "HgN/A
Weather by CustomWeather, © 2015

See weather overviewHow to use our weather pages